Regional Weather Roundup
Issued by NWS Charleston, SC

Home | Current Version | Previous Version | Text Only | Print | Product List | Glossary On
Versions: 1 2 3 4 5 6 7 8 9 10 11 12 13 14 15 16 17 18 19 20 21 22 23 24 25 26 27 28 29 30 31 32 33 34 35 36 37 38 39 40 41 42 43 44 45 46 47 48 49 50
000
ASUS42 KCHS 240825
RWRCHS

REGIONAL WEATHER ROUNDUP
NATIONAL WEATHER SERVICE CHARLESTON SC
400 AM EDT THU JUL 24 2014

NOTE: "FAIR" INDICATES FEW OR NO CLOUDS BELOW 12,000 FEET WITH NO
SIGNIFICANT WEATHER AND/OR OBSTRUCTIONS TO VISIBILITY.

NOT ALL STATIONS ARE QUALITY CONTROLLED BY THE NATIONAL
WEATHER SERVICE. USE DATA WITH CAUTION...ESPECIALLY
DEWPOINT OBSERVATIONS.

SCZ027-030-031-034>040-042>050-240900-
...SOUTH CAROLINA...

CITY           SKY/WX    TMP DP  RH WIND       PRES   REMARKS
N CHARLESTON   CLEAR     80  77  90 SW7       29.95F
WATERFRONT PRK   N/A     82 N/A N/A SW7         N/A
FORT JOHNSON   NOT AVBL
MOUNT PLEASANT FAIR      81  79  94 SW3       29.95S
JOHNS ISLAND   SUNNY     81  73  78 CALM      29.95F
PINOPOLIS        N/A     81  75  83 S3        29.88S
MONCKS CORNER    N/A     79  79 100 SW3       29.94F
SUMMERVILLE    FAIR      77  77 100 CALM      29.95F
BEAUFORT MCAS  CLEAR     80  77  90 W6        29.95F
BEAUFORT ARPT  FAIR      81  79  94 SW7       29.94F
HILTON HEAD IS CLEAR     81  79  94 SW5       29.97F
GEORGETOWN     NOT AVBL
WALTERBORO     SUNNY     77 N/A N/A SW5       29.96S
ORANGEBURG     CLEAR     76  74  93 SW6       29.95F
BARNWELL       FAIR      75  75 100 SW5       29.96S
AIKEN          FAIR      73  73 100 S5        29.98F
MANNING        FAIR      79 N/A N/A SW7       29.93F
KINGSTREE      NOT AVBL
COLUMBIA       PTCLDY    78  73  84 SW3       29.93F
SUMTER         CLEAR     76  76  97 SW8       29.92F
FLORENCE       CLEAR     77  74  90 SW5       29.93F
MYRTLE BEACH   CLEAR     79  75  89 W9        29.95S
N MYRTLE BEACH CLEAR     79  75  87 SW7       29.94F

$$

GAZ063-065-086>088-099>101-113>116-118-119-134-136>141-150-240900-
...GEORGIA...

CITY           SKY/WX    TMP DP  RH WIND       PRES   REMARKS
SAVANNAH ARPT  CLEAR     78  75  90 SW3       29.97F
HUNTER AAF     CLEAR     78  76  93 SW5       29.95F
FORT STEWART   CLEAR     77  73  87 SW5       29.96F
STATESBORO     NOT AVBL
SYLVANIA       SUNNY     77  77 100 CALM      29.97S FOG
CLAXTON        FAIR     N/A N/A N/A CALM      29.97S
THOMSON        CLEAR     77  76  98 CALM      29.98F
AUGUSTA-BUSH   CLEAR     71  70  96 S5        29.93F FOG
AUGUSTA-DANIEL CLEAR     77  72  84 CALM      29.95F
SWAINSBORO     FAIR      77  77 100 CALM      29.98S
VIDALIA          N/A     73  72  94 SW3       29.98S
ALMA           CLEAR     73  71  93 CALM      29.98F
WAYCROSS       CLEAR     77  76  95 W3        29.99S
JESUP          NOT AVBL
BRUNSWICK      CLEAR     79  72  78 CALM      29.98F
SAINT SIMONS   CLEAR     79  74  84 W6        29.98F

$$

SCZ027-028-034-036>038-045-046-048>050-GAZ119-141-240900-
...LAKE AND SUPPLEMENTAL COASTAL OBSERVATIONS...

STATION/POSITION TIME  TEMP    WIND        PRES    WAVE   SWELL
                       AIR SEA DIR/SP/G            HT/PER HT/PER/DIR
                 (UTC) (F)     (DEG/KT/KT) (MB)    (FT/S) (FT/S/D)
UPR LAKE MARION  NOT AVBL
WINYAH BAY       0700   78     240/  5     1014.0S
LAKE MURRAY      0700   79     220/  9/ 11 1013.2F
ACE BASIN NERRS  0700   79        CALM     1015.0S
FORT PULASKI     0800   80     240/  6/  8 1014.7F
SAPELO ISLAND    0700   81     250/  9     1016.0S

$$

ANZ835-935-AMZ111-154-330-350-352-354-374-450-454-472-240900-
...C-MAN AND BUOY OBSERVATIONS...

STATION/POSITION TIME  TEMP    WIND        PRES    WAVE   SWELL
                       AIR SEA DIR/SP/G            HT/PER HT/PER/DIR
                 (UTC) (F)     (DEG/KT/KT) (MB)    (FT/S) (FT/S/D)
FOLLY BEACH CMAN 0800   82     230/ 12/ 16 1014.6F
BUOY 41004       0800   82 82  220/ 17/ 21 1013.6F   3/ 7   2/ 7
BUOY 41008       0800   83 84  260/ 12/ 16 1014.8F   3/ 4   2/140/ 7
5E ST. MARYS GA  0800      84                N/A     3/ 4
FRYING PAN BUOY  NOT AVBL
BUOY 41025       0800          VRB 17/ 21  1012.1F   4/ 7   2/170/ 7
CAPE LOOKOUT NC  0800   80     230/ 12/ 18 1012.9F
BUOY 41002       0700   82 82  220/ 19/ 23 1016.3    5/ 6
BUOY 41010       0800   83 83  200/ 14/ 17 1016.5F   4/ 6   2/130/ 7
BUOY 41012       NOT AVBL
ST AUGUSTINE FL  0800   78     250/  3/  4 1016.6F
CAPERS NEARSHORE 0700   82     230/ 16/ 19   N/A
FRIPP NEARSHORE  NOT AVBL


$$



USA.gov is the U.S. government's official web portal to all federal, state and local government web resources and services.